Torna al catalogo

STARLINK-34038

AttivoComunicazioniVLEO
NORAD 63911·PAYLOAD·🇺🇸 United States

Lanciato May 10, 2025 da Cape Canaveral Space Force Station

Loading…

Prossimi Passaggi (prossime 24 ore)

TLE

AggiornatoSource: CelesTrak SupGP

Epoca: Sep 14, 2026, 20:58 UTC

1 63911C 25095X   26257.87409722  .00008459  00000+0  30629-3 0  2577
2 63911  42.9997 187.8303 0001359 257.9870 358.3799 15.27584915    10

Traccia STARLINK-34038 in tempo reale con AllMySat

Download on the App Store